Location: Lynch Observatory
(39.9540°N, 75.1861°W)
Time: 01:15:59
(UTC-04:00)

DOVE 4 - Pass Details

Date: 28 April 2024
Orbit: 582 x 778 km, 97.7° (Epoch: 27 May)

Event Time Altitude Azimuth Distance (km) Brightness Sun altitude
Rises 23:17:36 0° 2° (N) 2,947 ? -30.6°
Reaches altitude 10° 23:19:53 10° 354° (N) 2,064 ? -30.9°
Enters shadow 23:23:35 35° 301° (WNW) 1,081 ? -31.2°
